Weather History for KCSG - August, 2013

Change the Weather History Date:

Friday, August 30, 2013

  Actual Average Record
Temperature  
Mean Temperature 86 °F 81 °F  
Max Temperature 96 °F 90 °F 100 °F (1948)
Min Temperature 76 °F 71 °F 58 °F (1986)
Degree Days  
Heating Degree Days 0 0  
Month to date heating degree days 0 0  
Since 1 June heating degree days 0 0  
Since 1 July heating degree days 0 0  
Cooling Degree Days 21 16  
Month to date cooling degree days 466 507  
Year to date cooling degree days 1765 1855  
Since 1 June cooling degree days 1402 1497  
Growing Degree Days 35 (Base 50)    
Moisture  
Dew Point 73 °F    
Average Humidity 65    
Maximum Humidity 87    
Minimum Humidity 43    
Precipitation  
Precipitation 0.04 in 0.10 in 1.34 in (2006)
Month to date precipitation 8.63 3.66  
Year to date precipitation 50.37 32.63  
Sea Level Pressure  
Sea Level Pressure 29.93 in    
Wind  
Wind Speed 4 mph (NNE)    
Max Wind Speed 20 mph    
Max Gust Speed 26 mph    
Visibility 7 miles    
Events Rain , Thunderstorm    
T = Trace of Precipitation, MM = Missing Value Source: NWS Daily Summary

Daily Weather History Graph

Daily Weather History Graph

Search for Another Location

Airport or City:

Trip Planner

Search our weather history database for the weather conditions in past years. The results will help you decide how hot, cold, wet, or windy it might be!

Date:

Astronomy

Aug. 30, 2013 Rise Set
Actual Time 7:13 AM EDT 8:06 PM EDT
Civil Twilight 6:48 AM EDT 8:31 PM EDT
Nautical Twilight 6:18 AM EDT 9:01 PM EDT
Astronomical Twilight 5:48 AM EDT 9:31 PM EDT
Moon 2:01 AM EDT (8/30) 4:11 PM EDT (8/30)
Length of Visible Light 13h 43m
Length of Day
12h 52m
Waning Crescent, 29% of the Moon is Illuminated
Aug 30
Waning Crescent
Sep 5
New
Sep 12
First Quarter
Sep 19
Full
Sep 26
Last Quarter

Hourly Weather History & Observations

Time (EDT) Temp. Heat Index Dew Point Humidity Pressure Visibility Wind Dir Wind Speed Gust Speed Precip Events Conditions
12:51 AM 81.0 °F 84.9 °F 71.1 °F 72% 29.95 in 9.0 mi NNW 3.5 mph - N/A   Clear
1:51 AM 79.0 °F - 71.1 °F 77% 29.95 in 8.0 mi Calm Calm - N/A   Clear
2:51 AM 79.0 °F - 71.1 °F 77% 29.94 in 8.0 mi NW 3.5 mph - N/A   Clear
3:51 AM 79.0 °F - 71.1 °F 77% 29.93 in 8.0 mi NNW 3.5 mph - N/A   Clear
4:51 AM 77.0 °F - 71.1 °F 82% 29.93 in 7.0 mi Calm Calm - N/A   Clear
5:51 AM 75.9 °F - 71.1 °F 85% 29.93 in 7.0 mi Calm Calm - N/A   Clear
6:51 AM 77.0 °F - 71.1 °F 82% 29.94 in 7.0 mi NNW 4.6 mph - N/A   Clear
7:51 AM 78.1 °F - 70.0 °F 76% 29.95 in 6.0 mi North 3.5 mph - N/A   Haze
8:51 AM 80.1 °F 83.6 °F 71.1 °F 74% 29.97 in 7.0 mi North 4.6 mph - N/A   Clear
9:51 AM 82.9 °F 87.5 °F 71.1 °F 67% 29.97 in 7.0 mi North 5.8 mph - N/A   Clear
10:51 AM 86.0 °F 93.0 °F 73.0 °F 65% 29.98 in 8.0 mi Calm Calm - N/A   Clear
11:51 AM 88.0 °F 96.5 °F 73.9 °F 63% 29.98 in 8.0 mi SE 4.6 mph - N/A   Clear
12:51 PM 89.1 °F 97.0 °F 73.0 °F 59% 29.96 in 8.0 mi Calm Calm - N/A   Scattered Clouds
1:51 PM 91.0 °F 99.3 °F 73.0 °F 55% 29.94 in 9.0 mi NNW 5.8 mph - N/A   Mostly Cloudy
2:51 PM 93.0 °F 100.7 °F 72.0 °F 50% 29.92 in 8.0 mi NNE 5.8 mph - N/A   Clear
3:51 PM 93.9 °F 103.4 °F 73.0 °F 51% 29.90 in 9.0 mi NE 9.2 mph - N/A   Mostly Cloudy
4:51 PM 95.0 °F 101.3 °F 70.0 °F 44% 29.88 in 10.0 mi NNW 12.7 mph - N/A   Scattered Clouds
5:18 PM 89.6 °F 99.8 °F 75.2 °F 62% 29.90 in 6.0 mi NE 17.3 mph 26.5 mph 0.00 in Rain , Thunderstorm Light Thunderstorms and Rain
5:25 PM 84.2 °F 92.3 °F 75.2 °F 74% 29.91 in 2.0 mi ENE 6.9 mph 26.5 mph 0.02 in Rain Heavy Rain
5:27 PM 84.2 °F 92.3 °F 75.2 °F 74% 29.91 in 1.8 mi NE 6.9 mph 26.5 mph 0.03 in Rain , Thunderstorm Thunderstorms and Rain
5:33 PM 84.2 °F 92.3 °F 75.2 °F 74% 29.91 in 3.0 mi North 11.5 mph 17.3 mph 0.04 in Rain , Thunderstorm Light Thunderstorms and Rain
5:47 PM 84.2 °F 88.4 °F 69.8 °F 62% 29.90 in 10.0 mi North 3.5 mph - 0.04 in   Mostly Cloudy
5:51 PM 84.9 °F 89.4 °F 70.0 °F 61% 29.89 in 10.0 mi North 4.6 mph - 0.04 in   Scattered Clouds
6:51 PM 84.9 °F 93.3 °F 75.0 °F 72% 29.88 in 8.0 mi ENE 5.8 mph - N/A   Partly Cloudy
7:51 PM 86.0 °F 96.0 °F 75.9 °F 72% 29.89 in 7.0 mi East 3.5 mph - N/A   Scattered Clouds
8:51 PM 82.9 °F 90.2 °F 75.0 °F 77% 29.91 in 8.0 mi East 6.9 mph - N/A   Clear
9:51 PM 82.0 °F 88.6 °F 75.0 °F 79% 29.93 in 7.0 mi SE 5.8 mph - N/A   Clear
10:51 PM 81.0 °F 86.2 °F 73.9 °F 79% 29.93 in 7.0 mi Calm Calm - N/A   Clear
11:51 PM 80.1 °F 84.5 °F 73.9 °F 81% 29.94 in 7.0 mi South 4.6 mph - N/A   Overcast